Mankato, MN

8:12 AM CST on December 06, 2019 (GMT -0600)
Mankato Regional

Weather History for KMKT - November, 2019

Change the Weather History Date:

Tuesday, November 12, 2019

  Actual Average Record
Temperature  
Mean Temperature 10 °F -  
Max Temperature 18 °F 41 °F 66 °F (2001)
Min Temperature 1 °F 27 °F 8 °F (2013)
Degree Days  
Heating Degree Days 56    
Moisture  
Dew Point 4 °F    
Average Humidity 74    
Maximum Humidity 91    
Minimum Humidity 59    
Precipitation  
Precipitation 0.00 in - - ()
Sea Level Pressure  
Sea Level Pressure 30.42 in    
Wind  
Wind Speed 9 mph ()    
Max Wind Speed 21 mph    
Max Gust Speed 29 mph    
Visibility 10.0 miles    
Events      
Averages and records for this station are not official NWS values.
T = Trace of Precipitation, MM = Missing Value Source: Averaged Metar Reports

Daily Weather History Graph

Daily Weather History Graph

Search for Another Location

Airport or City:

Astronomy

Nov. 12, 2019 Rise Set
Actual Time 7:07 AM CST 4:52 PM CST
Civil Twilight 6:35 AM CST 5:23 PM CST
Nautical Twilight 6:01 AM CST 5:57 PM CST
Astronomical Twilight 5:27 AM CST 6:32 PM CST
Moon 5:20 PM CST (11/12) 6:57 AM CST (11/12)
Length of Visible Light 10h 47m
Length of Day
9h 45m
Full, 100% of the Moon is Illuminated
Nov 12
Full
Nov 19
Last Quarter
Nov 26
New
Dec 4
First Quarter
Dec 11
Full

Hourly Weather History & Observations

Time (CST) Temp. Windchill Dew Point Humidity Pressure Visibility Wind Dir Wind Speed Gust Speed Precip Events Conditions
12:56 AM 5.0 °F -6.9 °F -0.0 °F 80% 30.69 in 10.0 mi WNW 6.9 mph - N/A   Clear
1:56 AM 3.9 °F -6.9 °F -0.0 °F 84% 30.67 in 10.0 mi NW 5.8 mph - N/A   Clear
2:56 AM 3.0 °F -6.4 °F -0.9 °F 84% 30.67 in 10.0 mi WNW 4.6 mph - N/A   Clear
3:56 AM 3.0 °F -6.4 °F -0.0 °F 87% 30.66 in 10.0 mi West 4.6 mph - N/A   Clear
4:56 AM 1.9 °F -5.6 °F -0.9 °F 88% 30.64 in 10.0 mi WSW 3.5 mph - N/A   Clear
5:56 AM 1.9 °F -9.2 °F -0.0 °F 91% 30.63 in 10.0 mi SSW 5.8 mph - N/A   Clear
6:56 AM 1.9 °F -9.2 °F -0.9 °F 88% 30.61 in 10.0 mi SSW 5.8 mph - N/A   Clear
7:56 AM 3.9 °F -3.4 °F 1.0 °F 88% 30.61 in 10.0 mi SSW 3.5 mph - N/A   Clear
8:56 AM 8.1 °F -3.2 °F 3.0 °F 80% 30.60 in 10.0 mi South 6.9 mph - N/A   Clear
9:56 AM 10.0 °F -4.5 °F 3.0 °F 73% 30.57 in 10.0 mi SSW 11.5 mph - N/A   Clear
10:56 AM 12.0 °F -3.4 °F 1.9 °F 64% 30.53 in 10.0 mi South 13.8 mph - N/A   Clear
11:56 AM 14.0 °F -0.8 °F 3.9 °F 64% 30.48 in 10.0 mi South 13.8 mph - N/A   Clear
12:56 PM 16.0 °F 0.1 °F 6.1 °F 65% 30.44 in 10.0 mi South 17.3 mph 21.9 mph N/A   Clear
1:56 PM 17.1 °F 2.0 °F 5.0 °F 59% 30.38 in 10.0 mi South 16.1 mph 23.0 mph N/A   Clear
2:56 PM 17.1 °F 0.1 °F 7.0 °F 65% 30.33 in 10.0 mi SSE 20.7 mph 26.5 mph N/A   Clear
3:56 PM 17.1 °F 1.5 °F 6.1 °F 62% 30.29 in 10.0 mi SSE 17.3 mph 26.5 mph N/A   Clear
4:56 PM 17.1 °F 0.1 °F 6.1 °F 62% 30.23 in 10.0 mi South 20.7 mph 28.8 mph N/A   Clear
5:56 PM 16.0 °F -0.9 °F 7.0 °F 68% 30.24 in 10.0 mi South 19.6 mph 26.5 mph N/A   Clear
6:56 PM 15.1 °F 1.1 °F 6.1 °F 68% 30.22 in 10.0 mi South 12.7 mph 21.9 mph N/A   Clear
7:56 PM 16.0 °F 2.3 °F 7.0 °F 68% 30.20 in 10.0 mi South 12.7 mph 27.6 mph N/A   Scattered Clouds
8:56 PM 16.0 °F 1.1 °F 8.1 °F 71% 30.15 in 10.0 mi South 15.0 mph 24.2 mph N/A   Clear
9:56 PM 17.1 °F 2.0 °F 9.0 °F 71% 30.11 in 10.0 mi South 16.1 mph 23.0 mph N/A   Clear
10:56 PM 18.0 °F 3.1 °F 10.0 °F 71% 30.08 in 10.0 mi South 16.1 mph 21.9 mph N/A   Partly Cloudy
11:56 PM 18.0 °F 2.6 °F 10.0 °F 71% 30.06 in 10.0 mi South 17.3 mph 24.2 mph N/A   Clear